www.pogodaiklimat.ru

АРХИВ ПОГОДЫ в Джексоне

Время (UTC), дата Ветер
(напр.,м/с)
 
Видим.   Явления Облачность Т
(С)
Тd
(С)
f
(%)
Тe
(С)
Тes
(С)
Комфортность

P
(гПа)

Po
(гПа)
Тmin
(С)
Tmax
(С)
R
(мм)
SD
(см)
07:54 14.09 штиль  16 км    ясно  +23.3  +22.8  97  +32  +32  очень
душно 
1015.6  1003.5  +22.2  +23.9     
08:54 14.09 штиль  16 км    ясно  +23.0  +23.0  100  +32  +32  очень
душно 
1015.7  1003.5  +22.2  +23.9     
09:54 14.09 штиль  16 км    2/2 м
[верхняя] 
+23.0  +22.0  94  +31  +31  очень
душно 
1016.0  1003.9  +22.2  +23.9     
10:54 14.09 штиль  10 км    2/2 м
[верхняя] 
+22.8  +22.8  100  +31  +31  очень
душно 
1016.5  1004.2  +22.2  +23.9     
11:54 14.09 СВ  16 км    ясно  +24.0  +23.0  94  +32  +32  очень
душно 
1016.9  1004.5  +22.8  +32.8     
12:54 14.09 СВ  16 км    ясно  +27.0  +24.0  84  +37  +38  очень
душно 
1016.6  1004.5  +22.8  +32.8     
13:54 14.09 штиль  16 км    ясно  +29.4  +23.9  72  +40  +43  очень
душно 
1016.7  1004.5  +22.8  +32.8     
14:54 14.09 С  16 км  гроза со слабым дождем, дымка  8/8 м  +31.0  +24.0  66  +43  +44  опасность
перегрева 
1016.5  1004.2  +22.8  +32.8     
15:54 14.09 С  16 км  слабый дождь  8/8 м  +32.0  +23.0  59  +42  +44  опасность
перегрева 
1016.2  1004.2  +22.8  +32.8     
16:54 14.09 С  16 км    8/8 м  +31.7  +22.8  59  +41  +44  опасность
перегрева 
1015.7  1003.5  +22.8  +32.8     
17:54 14.09 С  16 км    8/8 м  +33.0  +23.0  56  +43  +45  опасность
перегрева 
1014.9  1002.9  +28.9  +34.4     
18:54 14.09 СЗ  16 км    8/8 м  +34.0  +22.0  50  +43  +45  опасность
перегрева 
1014.3  1002.2  +28.9  +34.4     
19:54 14.09 СЗ  16 км    8/8 м  +33.9  +21.1  47  +41  +43  опасность
перегрева 
1013.7  1001.5  +28.9  +34.4     
20:54 14.09 С  16 км    8/8 м  +34.0  +22.0  50  +43  +43  опасность
перегрева 
1013.5    +28.9  +34.4     
21:41 14.09 СВ  16 км    8/8 м  +32.0  +23.0  59  +42  +43  опасность
перегрева 
1014.0  1001.5  +28.9  +34.4     
22:41 14.09 нст  16 км    8/8 м  +31.0  +24.0  66  +43  +43  опасность
перегрева 
1013.7  1001.5  +28.9  +34.4     
23:54 14.09 Ю  16 км    ясно  +26.0  +23.0  84  +35  +35  очень
душно 
1014.4  1002.2  +23.9  +28.9     
00:54 15.09 штиль  16 км    ясно  +26.0  +24.0  89  +36  +36  очень
душно 
1014.9  1002.9  +23.9  +28.9     
01:54 15.09 штиль  16 км    ясно  +25.6  +23.9  90  +35  +35  очень
душно 
1015.1  1002.9  +23.9  +28.9     
02:54 15.09 штиль  16 км    ясно  +25.0  +23.0  89  +33  +33  очень
душно 
1015.0  1002.9  +23.9  +28.9     
03:54 15.09 штиль  16 км    ясно  +24.0  +23.0  94  +32  +32  очень
душно 
1014.9  1002.9  +23.9  +28.9     
04:54 15.09 штиль  16 км    ясно  +23.9  +23.3  96  +32  +32  очень
душно 
1014.5  1002.5  +23.9  +28.9     
05:54 15.09 штиль  16 км    ясно  +24.0  +23.0  94  +32  +32  очень
душно 
1014.3  1002.2  +22.8  +24.4     
06:54 15.09 С  16 км    ясно  +24.0  +23.0  94  +32  +32  очень
душно 
1013.9  1001.9  +22.8  +24.4     
07:54 15.09 штиль  11 км    ясно  +23.3  +22.8  97  +32  +32  очень
душно 
1013.9  1001.9  +22.8  +24.4     
08:54 15.09 С  16 км    ясно  +23.0  +23.0  100  +32  +32  очень
душно 
1013.6  1001.5  +22.8  +24.4     
09:54 15.09 штиль  10 км    ясно  +23.0  +23.0  100  +32  +32  очень
душно 
1014.0  1001.9  +22.8  +24.4     
10:54 15.09 штиль  13 км    ясно  +22.8  +22.8  100  +31  +31  очень
душно 
1014.3  1002.2  +22.8  +24.4     
11:54 15.09 С  16 км  гроза  ясно  +26.0  +24.0  89  +36  +36  очень
душно 
1014.9  1002.9  +22.8  +33.3     
12:54 15.09 СВ  16 км    ясно  +28.0  +23.0  74  +37  +38  очень
душно 
1015.0  1002.9  +22.8  +33.3     
13:54 15.09 нст  16 км    ясно  +30.0  +22.8  65  +40  +41  очень
душно 
1015.2  1002.9  +22.8  +33.3     
14:54 15.09 С  16 км    ясно  +32.0  +23.0  59  +42  +45  опасность
перегрева 
1015.1  1002.9  +22.8  +33.3     
15:54 15.09 нст  16 км  слабый дождь  5/5 м  +32.0  +23.0  59  +42  +49  опасность
перегрева 
1014.9  1002.9  +22.8  +33.3     
16:54 15.09 С  16 км  слабый дождь  5/5 м  +33.3  +22.2  52  +42  +47  опасность
перегрева 
1014.2  1002.2  +22.8  +33.3     
17:54 15.09 С  16 км  слабый дождь  5/5 м  +34.0  +22.0  50  +43  +47  опасность
перегрева 
1013.5  1001.5  +30.0  +34.4     
18:54 15.09 С  16 км    5/5 м  +34.0  +23.0  53  +44  +48  опасность
перегрева 
1012.9  1000.9  +30.0  +34.4     
19:54 15.09 С  16 км    2/2 м  +33.9  +22.2  51  +43  +48  опасность
перегрева 
1012.3  1000.2  +30.0  +34.4     
20:54 15.09 С  16 км    2/2 м  +33.0  +22.0  52  +41  +45  опасность
перегрева 
1012.0  999.9  +30.0  +34.4     
21:54 15.09 С  16 км    ясно  +33.0  +22.0  52  +41  +43  опасность
перегрева 
1011.9  999.9  +30.0  +34.4     
22:54 15.09 С  16 км    ясно  +30.0  +22.8  65  +40  +40  очень
душно 
1011.7  999.5  +30.0  +34.4     
23:54 15.09 С  16 км    ясно  +28.0  +23.0  74  +37  +37  очень
душно 
1012.1  999.9  +23.9  +30.0     
00:54 16.09 штиль  16 км    ясно  +27.0  +23.0  79  +36  +36  очень
душно 
1012.8  1000.5  +23.9  +30.0     
01:54 16.09 штиль  16 км    ясно  +26.1  +23.3  85  +35  +35  очень
душно 
1013.0  1000.9  +23.9  +30.0     
02:54 16.09 штиль  16 км    ясно  +25.0  +23.0  89  +33  +33  очень
душно 
1013.2  1001.2  +23.9  +30.0     
03:54 16.09 штиль  16 км    ясно  +24.0  +23.0  94  +32  +32  очень
душно 
1013.0  1000.9  +23.9  +30.0     
04:54 16.09 С  16 км    ясно  +23.9  +22.8  94  +32  +32  очень
душно 
1012.4  1000.2  +23.9  +30.0     
05:54 16.09 С  16 км    ясно  +24.0  +22.0  89  +31  +31  очень
душно 
1012.0  999.9  +22.8  +25.0     
06:54 16.09 С  16 км    ясно  +24.0  +22.0  89  +31  +31  очень
душно 
1011.7  999.5  +22.8  +25.0     

 

Местоположение метеостанции Jackson International Airport: широта 32.3197 долгота -90.0775 высота над уровнем моря 105 м.

В архиве по умолчанию представлена погода в Джексоне за последние 1-2 суток. Обновление информации о фактической погоде в базе происходит ежечасно! Архивные данные за месяц целиком и за предыдущие месяцы Вы можете получить, выбрав интересующий диапазон дат из раскрывающегося списка и нажав кнопку "Ввод!".

Внимание! Архив погоды МЕТАР в базе сайта в настоящее время начинается c 1 января 2013 г. Нет смысла пытаться выбрать более раннюю дату.

Внимание! Время в таблицах - всемирное. Для получения местного времени необходимо прибавить поправку, которая в Джексоне равна -6 ч.

Ветер - указаны скорость ветра в м/с и направление, откуда дует ветер: С - северный, СВ - северо-восточный, В - восточный, ЮВ - юго-восточный, Ю - южный, ЮЗ - юго-западный, З - западный, СЗ - северо-западный.
Видимость - горизонтальная дальность видимости в метрах или километрах. При видимости от 1 до 10 км при отсутствии осадков обычно наблюдается дымка, при ухудшении видимости до 1 км и менее - туман. В сухую погоду видимость может ухудшаться дымом, пылью или мглою.
Атмосферные явления - указаны явления, наблюдавшиеся в указанный момент времени.
Облачность - указаны через наклонную черту верхняя и нижняя облачность в баллах и высота нижней границы облаков в метрах. Внимание: облачность, как и прочие метеорологические величины в США измеряются автоматическими метеостанциями. Указанные значения в баллах носят условный характер и показывают процент времени, в течение которого, в среднем, лазерный луч высотомера отражался от облаков обратно.
T - Температура воздуха - температура, измеренная на высоте 2 м над землей.
Td - Температура точки росы - температура, при понижении до которой содержащийся в воздухе водяной пар достигнет насыщения.
f - Относительная влажность воздуха - влажноcть воздуха, измеренная на высоте 2 м над землей.
Te - Эффективная температура - температура, которую ощущает одетый по сезону человек в тени. Характеристика душности погоды. При расчете учитывается влияние влажности воздуха и скорости ветра на теплоощущения человека.
Tes - Эффективная температура на солнце - температура, которую ощущает человек, с поправкой на солнечный нагрев. Характеристика знойности погоды. Зависит от высоты солнца над горизонтом, облачности и скорости ветра. Ночью, в пасмурную погоду, а также при ветре 12 м/с и более поправка равна нулю.
P - Атмосферное давление - приведенное к уровню моря атмосферное давление.
Po - Атмосферное давление - измеренное на уровне метеостанции атмосферное давление.
Tmin - Минимальная температура - минимум температуры воздуха на высоте 2 м над землей.
Tmax - Максимальная температура - максимум температуры воздуха на высоте 2 м над землей.
R - Количество осадков - Количество выпавших осадков за 3 или 6 часов, мм.
SD - Снежный покров - Высота снежного покрова, см.